Location: doobydoo
(53.3403°N, 2.6908°W)
Time: 13:05:36
(UTC+00:00)

ISS - Pass Details

Date: 19 December 2021
Orbit: 413 x 422 km, 51.6° (Epoch: 19 January)

Event Time Altitude Azimuth Distance (km) Brightness Sun altitude
Rises 06:35:27 0° 193° (SSW) 2,362 0.1 -14.7°
Reaches altitude 10° 06:38:50 10° 157° (SSE) 1,506 -0.3 -14.2°
Maximum altitude 06:39:52 11° 139° (SE) 1,443 -0.1 -14.0°
Drops below altitude 10° 06:40:53 10° 121° (ESE) 1,510 0.4 -13.9°
Sets 06:44:18 0° 85° (E) 2,383 1.3 -13.4°
